2019-072B

Last updated on Sat Nov 16 2019 00:02:04 GMT+0000 (Coordinated Universal Time)

1 44704U 19072B 19318.90000630 .00061186 00000-0 25373-2 0 9992 2 44704 97.4955 31.6266 0013810 237.4792 256.2410 15.23558350 1784

Satellite not in orbit